[[{"header":{"parameterUnit":"m.s-1","parameterCategory":2,"la1":30.2991,"la2":30.254,"lo1":-89.0895,"lo2":-89.0444,"dy":0.0017,"dx":0.0017,"nx":28,"ny":28,"refTime":"2025-06-19T03:00:00:Z","depth":"0","parameterNumber":2,"parameterNumberName":"U-component_of_CURRENTS"},"data":[0,0,0,0,0,0,0,0,0,0,0,0,0,0,0,0,0,0,0,0,0,0,0,0,0,0,0,0,0,0,0,0,0,0,0,0,0,0,0,0,0,0,0,0,0,0,0,0,0,0,0,0,0,0,0,0,0,0,0.1425,0.1424,0,0.1344,0.1343,0.1342,0.1314,0.1314,0.1315,0.1315,0.1318,0.1318,0.1317,0,0,0,0,0,0,0,0,0,0,0,0,0,0.1415,0.1416,0.1425,0.1424,0.1423,0.1344,0.1342,0.1341,0.1314,0.1314,0.1315,0.1315,0.1318,0.1318,0.1317,0,0,0,0,0,0,0,0,0,0,0,0,0,0.1384,0.1416,0.1425,0.1401,0.1398,0.1344,0.1342,0.1341,0.1313,0.1314,0.1315,0.1315,0.1318,0.1318,0.1317,0.1301,0,0,0.1316,0.1316,0,0,0,0,0,0,0,0,0.1386,0.1384,0.1405,0.1402,0.1399,0.1341,0.134,0.1332,0.1313,0.1344,0.1315,0.1316,0.1334,0.1332,0.1312,0.1301,0.1301,0.1316,0.1315,0.1315,0.1315,0,0,0,0,0,0,0,0.1388,0.1387,0.1391,0.1404,0.14,0.1345,0.1343,0.1337,0.1337,0.1341,0.134,0.1332,0.1333,0.1313,0.1312,0.1301,0.1316,0.1315,0.1315,0.1315,0.1356,0.1358,0,0,0,0,0,0,0.1408,0.139,0.1394,0.1389,0.1395,0.1346,0.1343,0.1358,0.1335,0.1332,0.1332,0.1331,0.1313,0.1313,0.1313,0.1395,0.1315,0.1315,0.1315,0.1355,0.1357,0.1358,0,0,0,0,0,0,0.1409,0.141,0.1397,0.1387,0.1382,0.1347,0.1362,0.1356,0.134,0.1327,0.1325,0.1325,0.1314,0.1313,0.1389,0.1391,0.1315,0.1314,0.1353,0.1355,0.1357,0.1493,0,0,0,0,0,0,0.1409,0.1411,0.1453,0.1389,0.1383,0.1435,0.1362,0.1354,0.1335,0.1334,0.132,0.132,0.1314,0.139,0.1388,0.1389,0.1314,0.1351,0.1354,0.1357,0.1487,0.15,0.1511,0,0,0,0,0,0.1409,0.1474,0.1456,0.1457,0.1434,0.1439,0.1434,0.1405,0.1335,0.138,0.138,0.1321,0.1402,0.1394,0.1391,0.139,0.135,0.1353,0.1356,0.1482,0.1497,0.1511,0,0,0,0,0,0,0.1468,0.1474,0.1454,0.1511,0.1503,0.1437,0.1448,0.1404,0.1424,0.1393,0.1376,0.1382,0.1434,0.1401,0.1391,0.1407,0.1349,0.1352,0.1445,0.146,0.1471,0.1512,0.1313,0,0,0,0,0,0.1503,0.1554,0.1537,0.1569,0.1565,0.1494,0.1487,0.1451,0.144,0.1442,0.1428,0.1409,0.1436,0.1448,0.1455,0.1483,0.1499,0.1467,0.1479,0.1489,0.1519,0.1557,0.1576,0.1368,0.1368,0.1368,0,0,0.1524,0.153,0.1557,0.1586,0.1545,0.1541,0.1492,0.1468,0.1465,0.1441,0.1444,0.1457,0.1457,0.1505,0.1517,0.1484,0.1566,0.1493,0.1503,0.1527,0.1563,0.1583,0.1601,0.1371,0.137,0.137,0,0,0.1576,0.1593,0.1653,0.1657,0.1628,0.1574,0.1572,0.1514,0.1512,0.1524,0.1511,0.1568,0.154,0.1593,0.1602,0.168,0.1632,0.1628,0.1721,0.1757,0.1776,0.1792,0.1887,0.191,0.1628,0.1628,0.1629,0,0.162,0.1658,0.1668,0.1702,0.1688,0.1588,0.1599,0.1581,0.1558,0.1583,0.1541,0.1584,0.1588,0.1698,0.1735,0.1709,0.1734,0.1672,0.1777,0.1792,0.1807,0.19,0.1924,0.1635,0.1634,0.1634,0.1633,0,0.1672,0.1724,0.1737,0.1743,0.1746,0.1728,0.1691,0.168,0.1608,0.1604,0.1685,0.1727,0.176,0.176,0.1776,0.1881,0.1873,0.1795,0.1749,0.1837,0.1929,0.1952,0.1645,0.1643,0.1641,0.1639,0,0,0.1751,0.1781,0.1798,0.1797,0.1756,0.1746,0.1741,0.1748,0.1745,0.1753,0.1812,0.1894,0.1907,0.1924,0.1951,0.2009,0.2155,0.1954,0.1953,0.2068,0.2285,0.2346,0.2376,0.2082,0.2085,0.2088,0.2329,0,0.1791,0.1841,0.1863,0.1874,0.1863,0.1818,0.184,0.1834,0.1803,0.1843,0.1914,0.197,0.1968,0.1998,0.2066,0.2144,0.2212,0.2101,0.2168,0.2172,0.2228,0.2403,0.2339,0.2552,0.2351,0.2354,0.2357,0,0.1822,0.1859,0.1883,0.1914,0.1917,0.1913,0.1883,0.1907,0.1955,0.1961,0.2032,0.2055,0.2226,0.2139,0.2351,0.2276,0.2296,0.2336,0.2342,0.2368,0.2274,0.2419,0.26,0.2431,0.2391,0.2389,0.2386,0,0.1772,0.1867,0.1867,0.1872,0.1899,0.1918,0.1917,0.1936,0.1996,0.2038,0.207,0.2218,0.2302,0.2376,0.2485,0.2407,0.2685,0.2561,0.2646,0.2651,0.26,0.2595,0.2639,0.2657,0.2656,0.2656,0.2655,0,0.1753,0.1787,0.1848,0.1844,0.1888,0.1913,0.197,0.1965,0.2055,0.2141,0.2148,0.2245,0.235,0.2501,0.2555,0.2746,0.274,0.2741,0.2734,0.2651,0.2648,0.2494,0.2424,0.2665,0.2663,0.2661,0.266,0,0.1696,0.1722,0.1759,0.1828,0.1846,0.1876,0.2001,0.2065,0.2109,0.221,0.224,0.2344,0.2537,0.267,0.2831,0.286,0.2929,0.3023,0.2969,0.2953,0.2854,0.2796,0.2852,0.2771,0.3185,0.3188,0.3191,0,0.1675,0.1669,0.1735,0.1768,0.1806,0.1887,0.1954,0.2056,0.214,0.2274,0.2339,0.2521,0.2627,0.2954,0.3073,0.3251,0.3057,0.3247,0.3076,0.2923,0.2851,0.2707,0.262,0.3082,0.3084,0.3085,0.3086,0,0.1671,0.1676,0.1716,0.1758,0.1825,0.1918,0.2018,0.2098,0.2231,0.2302,0.242,0.2506,0.2807,0.2964,0.3202,0.3288,0.3097,0.3279,0.3105,0.2812,0.2672,0.2563,0.2881,0.3097,0.3096,0.3095,0.3095,0.3094,0.1701,0.1709,0.1729,0.1774,0.1849,0.1902,0.1945,0.2084,0.2191,0.2275,0.2426,0.2503,0.2745,0.3073,0.3159,0.3219,0.3181,0.3113,0.3079,0.2963,0.2813,0.3216,0.3411,0.3412,0.3412,0.3413,0.3413,0,0.1728,0.1708,0.1745,0.1776,0.1821,0.1856,0.1962,0.1991,0.2064,0.221,0.2299,0.2457,0.2638,0.2819,0.3019,0.2971,0.2827,0.2915,0.2632,0.257,0.292,0.2835,0.2928,0.2928,0.2928,0.2928,0.2929,0.2929,0.1738,0.172,0.1699,0.1725,0.1745,0.1764,0.1784,0.1825,0.1913,0.1992,0.207,0.2186,0.2433,0.2629,0.2656,0.2649,0.241,0.2435,0.2353,0.2505,0.2515,0.2525,0.2421,0.2427,0.2427,0.188,0.1875,0.1872]},{"header":{"parameterUnit":"m.s-1","parameterCategory":2,"la1":30.2991,"la2":30.254,"lo1":-89.0895,"lo2":-89.0444,"dy":0.0017,"dx":0.0017,"nx":28,"ny":28,"refTime":"2025-06-19T03:00:00:Z","depth":"0","parameterNumber":3,"parameterNumberName":"V-component_of_CURRENTS"},"data":[0,0,0,0,0,0,0,0,0,0,0,0,0,0,0,0,0,0,0,0,0,0,0,0,0,0,0,0,0,0,0,0,0,0,0,0,0,0,0,0,0,0,0,0,0,0,0,0,0,0,0,0,0,0,0,0,0,0,0.0561,0.0559,0,0.0463,0.0463,0.0463,0.0508,0.0509,0.051,0.0511,0.0466,0.0464,0.0461,0,0,0,0,0,0,0,0,0,0,0,0,0,0.0597,0.0598,0.0561,0.0558,0.0556,0.0463,0.0463,0.0463,0.0508,0.0509,0.0511,0.0512,0.0466,0.0464,0.0461,0,0,0,0,0,0,0,0,0,0,0,0,0,0.0564,0.0599,0.0562,0.0555,0.0552,0.0463,0.0463,0.0463,0.0508,0.0509,0.0511,0.0512,0.0467,0.0464,0.0461,0.0412,0,0,0.0451,0.045,0,0,0,0,0,0,0,0,0.0566,0.0565,0.0559,0.0555,0.0552,0.0485,0.0458,0.0443,0.0508,0.0542,0.0511,0.0513,0.0465,0.0462,0.0463,0.041,0.0408,0.0451,0.0449,0.0448,0.0447,0,0,0,0,0,0,0,0.0569,0.0568,0.0539,0.0555,0.0551,0.049,0.0491,0.0455,0.051,0.0539,0.0538,0.0501,0.0466,0.0466,0.0462,0.0408,0.0451,0.0448,0.0446,0.0445,0.0344,0.0344,0,0,0,0,0,0,0.0557,0.0572,0.0542,0.0534,0.0544,0.0488,0.0489,0.0518,0.051,0.0504,0.0499,0.0503,0.0471,0.0466,0.0461,0.0459,0.0448,0.0445,0.0443,0.0345,0.0344,0.0343,0,0,0,0,0,0,0.0559,0.0558,0.0545,0.0533,0.0525,0.0485,0.0518,0.0515,0.0512,0.0476,0.0476,0.0496,0.0472,0.0465,0.0457,0.0455,0.0443,0.044,0.0346,0.0345,0.0344,0.0418,0,0,0,0,0,0,0.0562,0.0562,0.0584,0.0535,0.0525,0.0504,0.0514,0.0512,0.0479,0.0483,0.0472,0.047,0.0472,0.0462,0.0454,0.0451,0.0438,0.0347,0.0346,0.0344,0.0417,0.042,0.0423,0,0,0,0,0,0.0565,0.0601,0.0588,0.0582,0.0559,0.0502,0.0494,0.0478,0.0477,0.0482,0.0488,0.0471,0.0446,0.046,0.045,0.0446,0.0348,0.0346,0.0344,0.0416,0.0419,0.0423,0,0,0,0,0,0,0.0608,0.0605,0.0591,0.062,0.0559,0.0504,0.0484,0.0468,0.0473,0.0479,0.0469,0.0468,0.0457,0.043,0.0445,0.0408,0.0389,0.0385,0.0446,0.0449,0.0452,0.0485,0.0435,0,0,0,0,0,0.0625,0.0671,0.061,0.0622,0.0588,0.0531,0.0503,0.0489,0.0468,0.0472,0.0463,0.0448,0.0438,0.0431,0.0413,0.0391,0.0369,0.0375,0.0378,0.0381,0.0398,0.0358,0.036,0.0338,0.0338,0.0338,0,0,0.0621,0.0635,0.0645,0.0633,0.0582,0.0546,0.0524,0.0478,0.0476,0.0461,0.047,0.0454,0.0433,0.043,0.0419,0.0411,0.0374,0.0378,0.0382,0.0398,0.0357,0.0359,0.0361,0.0337,0.0337,0.0337,0,0,0.0616,0.0658,0.0665,0.0638,0.0572,0.0551,0.0533,0.0477,0.0488,0.0469,0.0473,0.0462,0.0426,0.0434,0.0427,0.042,0.039,0.0399,0.0445,0.0407,0.0409,0.0411,0.0393,0.0393,0.0402,0.0403,0.0403,0,0.0605,0.0632,0.0642,0.0628,0.06,0.0553,0.0518,0.0519,0.0481,0.0493,0.0478,0.045,0.0431,0.0443,0.0462,0.0429,0.0413,0.0444,0.0414,0.0415,0.0416,0.0397,0.0396,0.0406,0.0405,0.0405,0.0405,0,0.0596,0.0603,0.0592,0.0593,0.0574,0.0538,0.0517,0.0517,0.0508,0.0509,0.0509,0.049,0.0473,0.0462,0.0471,0.047,0.046,0.0425,0.0417,0.0424,0.0402,0.0399,0.0411,0.041,0.0409,0.0408,0,0,0.0613,0.059,0.0593,0.0579,0.0561,0.0545,0.0549,0.0543,0.0565,0.0541,0.056,0.0549,0.0538,0.0529,0.0519,0.051,0.0506,0.0489,0.0485,0.0492,0.0444,0.0452,0.045,0.0474,0.0473,0.0473,0.0431,0,0.0585,0.0569,0.058,0.0555,0.0523,0.0525,0.0548,0.056,0.0566,0.0588,0.0579,0.0587,0.0564,0.056,0.0546,0.0529,0.0502,0.0522,0.0418,0.0416,0.0439,0.0447,0.0465,0.0431,0.0429,0.0428,0.0428,0,0.0575,0.0576,0.0539,0.055,0.0541,0.0544,0.0584,0.0598,0.0635,0.0637,0.0635,0.0633,0.0641,0.0595,0.0554,0.0574,0.0513,0.0487,0.0483,0.0467,0.0419,0.0419,0.0426,0.0344,0.0423,0.0424,0.0424,0,0.0578,0.0562,0.0547,0.0544,0.0541,0.0554,0.0576,0.0614,0.0663,0.0671,0.0689,0.0678,0.0674,0.0611,0.0568,0.0556,0.0521,0.047,0.0411,0.0411,0.0394,0.0393,0.0329,0.0401,0.0401,0.0401,0.0401,0,0.0562,0.0553,0.0553,0.0538,0.0577,0.0576,0.0635,0.0641,0.0696,0.077,0.0719,0.0753,0.0679,0.0659,0.0589,0.0521,0.0513,0.0434,0.0402,0.042,0.0422,0.0323,0.0268,0.0399,0.04,0.04,0.04,0,0.0536,0.0527,0.0523,0.0539,0.0557,0.0595,0.0686,0.0751,0.0758,0.0838,0.0845,0.083,0.0795,0.0723,0.0635,0.0549,0.0436,0.0432,0.0479,0.0454,0.0318,0.0266,0.0163,0.0173,0.0358,0.0358,0.0358,0,0.0508,0.0487,0.0532,0.0565,0.0569,0.0639,0.0711,0.0773,0.0853,0.0898,0.0951,0.0924,0.0932,0.0808,0.0658,0.0525,0.0443,0.0431,0.0393,0.0331,0.0248,0.0205,0.0218,0.0397,0.0397,0.0397,0.0397,0,0.045,0.0473,0.0492,0.0561,0.0638,0.0732,0.0828,0.0911,0.1,0.1058,0.1122,0.1124,0.0993,0.0891,0.0693,0.0577,0.0396,0.043,0.0341,0.0265,0.0237,0.0225,0.0416,0.0399,0.0399,0.0399,0.0399,0.0399,0.0445,0.0463,0.0501,0.0582,0.0674,0.0792,0.0878,0.1007,0.1135,0.1253,0.1269,0.1307,0.1131,0.0864,0.0681,0.0379,0.0382,0.0303,0.0244,0.0205,0.0221,0.0438,0.0399,0.0399,0.0398,0.0398,0.0398,0,0.0452,0.0473,0.0519,0.0625,0.0722,0.077,0.0942,0.1046,0.1201,0.1359,0.1443,0.1433,0.1177,0.0894,0.0478,0.0246,0.0166,0.0143,0.0077,0.0101,0.0267,0.0277,0.0241,0.0241,0.0241,0.0241,0.0241,0.0241,0.0471,0.0496,0.0516,0.064,0.0714,0.0858,0.0957,0.1114,0.1259,0.1467,0.1579,0.1667,0.152,0.0723,0.0214,0.0084,-0.0056,-0.0103,-0.0132,-0.0045,-0.0035,-0.0025,-0.0028,-0.0127,-0.0128,-0.0247,-0.0249,-0.025]}],[{"header":{"parameterUnit":"m.s-1","parameterCategory":2,"la1":30.2991,"la2":30.254,"lo1":-89.0895,"lo2":-89.0444,"dy":0.0017,"dx":0.0017,"nx":28,"ny":28,"refTime":"2025-06-19T03:00:00:Z","depth":"2","parameterNumber":2,"parameterNumberName":"U-component_of_CURRENTS"},"data":[0,0,0,0,0,0,0,0,0,0,0,0,0,0,0,0,0,0,0,0,0,0,0,0,0,0,0,0,0,0,0,0,0,0,0,0,0,0,0,0,0,0,0,0,0,0,0,0,0,0,0,0,0,0,0,0,0,0,0.0602,0.0604,0,0.0567,0.0564,0.0562,0.0598,0.0602,0.0606,0.0609,0.0631,0.0628,0.0625,0,0,0,0,0,0,0,0,0,0,0,0,0,0.0673,0.0669,0.0602,0.0604,0.0606,0.0567,0.0564,0.0561,0.0597,0.0602,0.0607,0.0611,0.0632,0.0628,0.0624,0,0,0,0,0,0,0,0,0,0,0,0,0,0.0615,0.0668,0.0602,0.0639,0.0644,0.0568,0.0564,0.056,0.0596,0.0602,0.0608,0.0613,0.0633,0.0628,0.0624,0.048,0,0,0.061,0.0608,0,0,0,0,0,0,0,0,0.0618,0.0609,0.0632,0.0637,0.0643,0.0616,0.0599,0.0546,0.0595,0.0586,0.061,0.0616,0.0644,0.0639,0.0581,0.0481,0.0482,0.061,0.0607,0.0605,0.0604,0,0,0,0,0,0,0,0.0622,0.0611,0.0561,0.0634,0.0641,0.0651,0.0646,0.0586,0.0563,0.0587,0.0597,0.0633,0.0645,0.0585,0.0582,0.0482,0.061,0.0606,0.0603,0.0601,0.044,0.0439,0,0,0,0,0,0,0.0674,0.0613,0.0563,0.0563,0.0675,0.0647,0.064,0.0597,0.0563,0.0571,0.0629,0.0636,0.0589,0.0587,0.0584,0.0658,0.0605,0.0601,0.0598,0.0442,0.044,0.0438,0,0,0,0,0,0,0.0674,0.0666,0.0565,0.0615,0.0606,0.0642,0.0592,0.0594,0.0597,0.0599,0.0603,0.0643,0.0594,0.059,0.0587,0.0652,0.0599,0.0595,0.0444,0.0441,0.0439,0.0651,0,0,0,0,0,0,0.0674,0.0663,0.0652,0.0615,0.0606,0.0431,0.0589,0.059,0.0621,0.063,0.061,0.0614,0.0598,0.0594,0.0583,0.0644,0.0591,0.0446,0.0443,0.044,0.0646,0.0656,0.0665,0,0,0,0,0,0.0675,0.059,0.0648,0.0647,0.0584,0.0427,0.0411,0.0447,0.0617,0.0497,0.061,0.0618,0.0568,0.0589,0.0576,0.0639,0.0447,0.0443,0.044,0.0642,0.0654,0.0665,0,0,0,0,0,0,0.0631,0.0588,0.0651,0.0569,0.049,0.0442,0.0455,0.0468,0.0456,0.0659,0.0594,0.0595,0.061,0.0559,0.0583,0.0568,0.0508,0.0501,0.0665,0.0676,0.0686,0.0659,0.0587,0,0,0,0,0,0.0623,0.0586,0.0502,0.0481,0.047,0.0486,0.0467,0.0543,0.055,0.0559,0.0534,0.0583,0.056,0.0578,0.0525,0.0518,0.0514,0.0539,0.0549,0.0558,0.0518,0.0579,0.0595,0.0427,0.0427,0.0427,0,0,0.0667,0.0625,0.0636,0.0479,0.0516,0.048,0.0481,0.0563,0.0544,0.0574,0.0585,0.0607,0.0553,0.056,0.0564,0.0554,0.0614,0.0554,0.0564,0.0516,0.0578,0.0596,0.0611,0.0425,0.0425,0.0425,0,0,0.0695,0.0663,0.0639,0.0491,0.0539,0.0599,0.0619,0.0611,0.0589,0.0587,0.0657,0.0669,0.0617,0.0573,0.0554,0.0548,0.0645,0.061,0.0676,0.0741,0.0758,0.0772,0.0865,0.0885,0.0643,0.0643,0.0643,0,0.0756,0.0686,0.06,0.046,0.0497,0.0651,0.0684,0.0596,0.059,0.0613,0.063,0.0661,0.0578,0.0604,0.0607,0.0568,0.0693,0.067,0.0766,0.0779,0.079,0.088,0.09,0.0653,0.0652,0.0651,0.065,0,0.0697,0.0631,0.0615,0.0576,0.0553,0.0627,0.0589,0.062,0.078,0.0734,0.0769,0.0682,0.0688,0.068,0.064,0.071,0.0807,0.0772,0.0769,0.0822,0.0911,0.0929,0.0667,0.0663,0.066,0.0658,0,0,0.0794,0.065,0.0583,0.0613,0.0675,0.0647,0.0741,0.0792,0.0858,0.0836,0.0829,0.0764,0.0815,0.078,0.0775,0.0811,0.0955,0.0878,0.0877,0.1025,0.1238,0.1026,0.1025,0.1069,0.1071,0.1073,0.13,0,0.0828,0.0629,0.0613,0.0642,0.065,0.0783,0.069,0.0764,0.0931,0.0879,0.0862,0.084,0.0814,0.0904,0.0928,0.0925,0.1006,0.09,0.1107,0.111,0.0963,0.1033,0.0967,0.1141,0.1317,0.132,0.1322,0,0.0763,0.0637,0.0605,0.0643,0.0651,0.0695,0.0926,0.0895,0.0899,0.0951,0.1113,0.109,0.109,0.1035,0.1148,0.1165,0.1203,0.1209,0.1219,0.0935,0.0925,0.109,0.1165,0.135,0.1348,0.1346,0.1344,0,0.0809,0.0693,0.0738,0.0669,0.0637,0.0732,0.0878,0.0959,0.0946,0.111,0.1228,0.125,0.1263,0.1343,0.1313,0.1331,0.1436,0.1427,0.1289,0.1279,0.1183,0.1156,0.1506,0.1506,0.1505,0.1504,0.1504,0,0.0808,0.0794,0.0705,0.0599,0.0666,0.0688,0.081,0.0968,0.1024,0.1036,0.1273,0.1328,0.1368,0.142,0.1412,0.1389,0.153,0.1287,0.1305,0.1252,0.123,0.1338,0.1316,0.1513,0.1511,0.1509,0.1508,0,0.0813,0.0727,0.0751,0.0672,0.0677,0.0734,0.082,0.0831,0.1001,0.1113,0.1171,0.1384,0.1514,0.1551,0.1599,0.1486,0.1474,0.1436,0.1361,0.1356,0.1281,0.1267,0.1347,0.1341,0.1336,0.1332,0.1328,0,0.0827,0.0797,0.075,0.0792,0.0808,0.0811,0.0755,0.0831,0.0861,0.1118,0.1117,0.1358,0.14,0.1457,0.1369,0.1367,0.1426,0.1245,0.1114,0.1246,0.1258,0.1251,0.1243,0.1159,0.1154,0.115,0.1147,0,0.0891,0.0877,0.08,0.0731,0.0774,0.0776,0.0772,0.0721,0.0746,0.0884,0.1035,0.1139,0.124,0.1183,0.1163,0.112,0.122,0.1152,0.1392,0.112,0.1061,0.1073,0.1075,0.1113,0.1117,0.1119,0.1121,0.1122,0.0912,0.0973,0.0776,0.0821,0.0825,0.0798,0.0777,0.0659,0.0617,0.0747,0.0758,0.0956,0.0941,0.09,0.089,0.0942,0.0948,0.0903,0.0922,0.0943,0.079,0.0714,0.0681,0.0682,0.0683,0.0683,0.0684,0,0.0795,0.0938,0.093,0.0903,0.0863,0.0866,0.0773,0.0683,0.0644,0.064,0.0669,0.0629,0.0611,0.0769,0.077,0.0657,0.0738,0.0667,0.0811,0.0838,0.0864,0.0715,0.0585,0.0586,0.0586,0.0587,0,0,0.0744,0.0738,0.0804,0.0844,0.0919,0.0844,0.0847,0.0744,0.0668,0.0612,0.0655,0.0531,0.0674,0.0612,0.0559,0.0636,0.0762,0.0622,0.0684,0.0881,0.091,0.0953,0.0743,0,0,0,0,0]},{"header":{"parameterUnit":"m.s-1","parameterCategory":2,"la1":30.2991,"la2":30.254,"lo1":-89.0895,"lo2":-89.0444,"dy":0.0017,"dx":0.0017,"nx":28,"ny":28,"refTime":"2025-06-19T03:00:00:Z","depth":"2","parameterNumber":3,"parameterNumberName":"V-component_of_CURRENTS"},"data":[0,0,0,0,0,0,0,0,0,0,0,0,0,0,0,0,0,0,0,0,0,0,0,0,0,0,0,0,0,0,0,0,0,0,0,0,0,0,0,0,0,0,0,0,0,0,0,0,0,0,0,0,0,0,0,0,0,0,0.0252,0.0252,0,0.0198,0.0198,0.0198,0.0247,0.0248,0.025,0.0252,0.0256,0.0254,0.0253,0,0,0,0,0,0,0,0,0,0,0,0,0,0.0283,0.0284,0.0252,0.0251,0.025,0.0198,0.0198,0.0198,0.0246,0.0248,0.025,0.0252,0.0256,0.0254,0.0253,0,0,0,0,0,0,0,0,0,0,0,0,0,0.0257,0.0284,0.0253,0.0266,0.0266,0.0198,0.0198,0.0197,0.0246,0.0248,0.0251,0.0253,0.0257,0.0255,0.0252,0.0189,0,0,0.0246,0.0245,0,0,0,0,0,0,0,0,0.0259,0.0257,0.0265,0.0265,0.0265,0.0229,0.021,0.0196,0.0245,0.0257,0.0252,0.0254,0.0248,0.0246,0.0235,0.0189,0.019,0.0246,0.0244,0.0243,0.0243,0,0,0,0,0,0,0,0.0261,0.0259,0.0235,0.0264,0.0264,0.0235,0.0236,0.0207,0.0243,0.0257,0.0259,0.0247,0.0249,0.0237,0.0236,0.019,0.0246,0.0244,0.0243,0.0242,0.0171,0.017,0,0,0,0,0,0,0.0264,0.0261,0.0236,0.0233,0.0264,0.0233,0.0233,0.0241,0.0242,0.0243,0.0244,0.0249,0.0239,0.0238,0.0236,0.0226,0.0243,0.0241,0.024,0.0171,0.0171,0.017,0,0,0,0,0,0,0.0265,0.0263,0.0238,0.0241,0.0236,0.023,0.0237,0.0238,0.0242,0.0232,0.0236,0.0249,0.0241,0.0239,0.0236,0.0224,0.024,0.0239,0.0172,0.0171,0.017,0.0164,0,0,0,0,0,0,0.0266,0.0264,0.0255,0.0242,0.0236,0.0179,0.0235,0.0235,0.0227,0.0233,0.0235,0.0238,0.0243,0.024,0.0234,0.0222,0.0237,0.0173,0.0172,0.0171,0.0165,0.0163,0.0161,0,0,0,0,0,0.0268,0.0226,0.0256,0.0251,0.023,0.0176,0.0169,0.0176,0.0225,0.0196,0.0236,0.0239,0.0229,0.0237,0.0231,0.0218,0.0173,0.0172,0.0171,0.0166,0.0163,0.0161,0,0,0,0,0,0,0.023,0.0226,0.0259,0.0221,0.0201,0.0183,0.0163,0.0174,0.018,0.0232,0.0227,0.0229,0.0215,0.0216,0.0225,0.0194,0.0201,0.0199,0.02,0.0197,0.0196,0.0184,0.0235,0,0,0,0,0,0.022,0.0217,0.0194,0.0181,0.017,0.0177,0.0158,0.0184,0.0188,0.0196,0.0199,0.0216,0.0196,0.0202,0.0183,0.0167,0.0166,0.0155,0.0154,0.0152,0.0138,0.0147,0.0145,0.0166,0.0166,0.0166,0,0,0.0221,0.021,0.0217,0.0175,0.0183,0.0164,0.0174,0.0175,0.0167,0.0195,0.02,0.02,0.0186,0.0172,0.0166,0.0181,0.0143,0.015,0.0149,0.0136,0.0145,0.0143,0.0142,0.0165,0.0165,0.0165,0,0,0.0188,0.0203,0.0177,0.0137,0.0132,0.0167,0.0167,0.0167,0.0166,0.0162,0.0185,0.0164,0.0161,0.013,0.0117,0.0083,0.0121,0.0112,0.0107,0.0116,0.0115,0.0113,0.0101,0.0099,0.0127,0.0127,0.0127,0,0.0173,0.0157,0.0155,0.009,0.0096,0.0172,0.0163,0.0145,0.015,0.016,0.0171,0.015,0.0118,0.0081,0.0078,0.0071,0.0114,0.0119,0.0115,0.0114,0.0112,0.01,0.0098,0.0127,0.0127,0.0127,0.0127,0,0.0137,0.0086,0.0066,0.0064,0.0063,0.0072,0.008,0.0097,0.0157,0.0161,0.0136,0.0087,0.0079,0.0058,0.0058,0.0038,0.0082,0.0102,0.0123,0.011,0.0098,0.0095,0.0126,0.0126,0.0126,0.0126,0,0,0.0145,0.0069,0.0037,0.0033,0.0067,0.0068,0.009,0.0125,0.0158,0.0131,0.0123,0.0046,0.006,0.0041,0.0024,0.002,0.0013,0.0085,0.0085,0.0076,0.0068,0.0083,0.0082,0.0091,0.0091,0.0091,0.0061,0,0.012,0.0025,0.0014,-0.0009,-0.002,0.0043,0.0014,0.0058,0.0152,0.0152,0.0088,0.0081,0.0041,0.0058,0.0032,0.0017,0.0013,0.002,0.0078,0.0077,0.0096,0.008,0.0029,-0.0,0.0058,0.0058,0.0058,0,0.0086,0.002,-0.0029,-0.0051,-0.0052,-0.0034,0.0085,0.0055,0.0085,0.0137,0.0165,0.0163,0.0086,0.0079,0.0017,0.0061,0.0063,0.0048,0.0048,0.006,0.0088,0.0023,-0.0007,0.0054,0.0054,0.0054,0.0054,0,0.0125,0.0013,0.0006,-0.0021,-0.0065,-0.0041,0.0004,0.0071,0.0068,0.0167,0.0248,0.0182,0.0139,0.0127,0.0072,0.0092,0.0037,0.0048,0.0048,0.0049,0.0004,0.0002,0.003,0.003,0.003,0.003,0.0031,0,0.0119,0.0078,0.0004,-0.0037,-0.0027,-0.0064,-0.002,0.0066,0.0083,0.0126,0.0222,0.026,0.0173,0.0142,0.0103,0.0051,0.0053,0.003,0.0043,-0.0,-0.0003,0.0046,0.0048,0.0029,0.003,0.003,0.003,0,0.0112,0.0071,0.0034,-0.0027,-0.0017,-0.0018,0.0,0.0,0.008,0.0166,0.0197,0.0273,0.0259,0.0184,0.0122,0.008,0.0039,0.0037,-0.0024,-0.0017,0.0036,0.0038,0.002,0.002,0.002,0.002,0.0021,0,0.011,0.0065,0.0038,0.0077,0.0065,0.0038,0.001,0.0024,0.0065,0.019,0.0226,0.026,0.0324,0.0223,0.0115,0.0037,0.0045,-0.0018,-0.0026,0.0021,0.0035,0.0037,0.0039,-0.0099,-0.01,-0.0101,-0.0102,0,0.0072,0.0059,0.002,0.0059,0.0093,0.0082,0.0096,0.0104,0.0094,0.0235,0.0373,0.0432,0.0341,0.0217,0.0101,0.0053,-0.0018,-0.0031,0.0034,-0.0074,-0.0089,-0.0075,-0.007,-0.0108,-0.0107,-0.0106,-0.0106,-0.0106,0.0041,0.0063,0.0021,0.0081,0.0137,0.0174,0.019,0.0206,0.0258,0.0419,0.0379,0.05,0.028,0.0138,0.0026,-0.0051,-0.0032,-0.0072,-0.0071,-0.007,-0.0063,-0.0075,-0.0092,-0.0091,-0.0091,-0.009,-0.009,0,-0.0044,0.0035,0.0079,0.0168,0.0222,0.0243,0.0264,0.0288,0.0436,0.0476,0.0568,0.039,0.0245,0.0101,-0.0035,-0.0127,-0.0136,-0.014,-0.0173,-0.0168,-0.0163,-0.0162,-0.0217,-0.0217,-0.0217,-0.0217,0,0,-0.0039,-0.0012,0.004,0.0191,0.029,0.0367,0.0412,0.0532,0.0583,0.0644,0.0655,0.0469,0.0294,0.0123,-0.0066,-0.0107,-0.0081,-0.0101,0.0002,-0.0012,-0.0004,-0.0136,-0.0128,0,0,0,0,0]}],[{"header":{"parameterUnit":"m.s-1","parameterCategory":2,"la1":30.2991,"la2":30.254,"lo1":-89.0895,"lo2":-89.0444,"dy":0.0017,"dx":0.0017,"nx":28,"ny":28,"refTime":"2025-06-19T03:00:00:Z","depth":"4","parameterNumber":2,"parameterNumberName":"U-component_of_CURRENTS"},"data":[0,0,0,0,0,0,0,0,0,0,0,0,0,0,0,0,0,0,0,0,0,0,0,0,0,0,0,0,0,0,0,0,0,0,0,0,0,0,0,0,0,0,0,0,0,0,0,0,0,0,0,0,0,0,0,0,0,0,-0.0552,-0.0553,0,-0.0587,-0.0587,-0.0587,-0.0604,-0.0604,-0.0605,-0.0605,-0.0712,-0.0715,-0.0717,0,0,0,0,0,0,0,0,0,0,0,0,0,-0.0512,-0.0512,-0.0552,-0.0553,-0.0554,-0.0587,-0.0587,-0.0587,-0.0604,-0.0604,-0.0605,-0.0605,-0.0711,-0.0714,-0.0717,0,0,0,0,0,0,0,0,0,0,0,0,0,-0.0532,-0.0512,-0.0552,-0.0569,-0.0572,-0.0587,-0.0587,-0.0587,-0.0604,-0.0604,-0.0605,-0.0605,-0.071,-0.0714,-0.0718,-0.0728,0,0,-0.0729,-0.0731,0,0,0,0,0,0,0,0,-0.0531,-0.0533,-0.0566,-0.0568,-0.0571,-0.0596,-0.0613,-0.064,-0.0603,-0.0586,-0.0605,-0.0606,-0.0683,-0.0689,-0.0686,-0.0733,-0.0738,-0.0729,-0.0732,-0.0733,-0.0734,0,0,0,0,0,0,0,-0.0529,-0.0531,-0.0561,-0.0567,-0.057,-0.058,-0.0583,-0.0617,-0.0628,-0.0588,-0.059,-0.0602,-0.0684,-0.0682,-0.0689,-0.0739,-0.0729,-0.0732,-0.0735,-0.0736,-0.0831,-0.0831,0,0,0,0,0,0,-0.0533,-0.053,-0.056,-0.0563,-0.0557,-0.0581,-0.0584,-0.0583,-0.0626,-0.0634,-0.0601,-0.0602,-0.0676,-0.0685,-0.0693,-0.0793,-0.0733,-0.0737,-0.0739,-0.083,-0.0831,-0.0831,0,0,0,0,0,0,-0.0532,-0.0535,-0.0559,-0.0552,-0.0556,-0.0581,-0.058,-0.0584,-0.061,-0.0637,-0.0645,-0.0627,-0.0677,-0.0688,-0.0728,-0.0794,-0.0738,-0.0742,-0.083,-0.083,-0.0831,-0.0938,0,0,0,0,0,0,-0.053,-0.0533,-0.0534,-0.0551,-0.0557,-0.0566,-0.058,-0.0584,-0.0616,-0.0619,-0.0662,-0.067,-0.0678,-0.0722,-0.0732,-0.0798,-0.0744,-0.083,-0.083,-0.0831,-0.0934,-0.0942,-0.0949,0,0,0,0,0,-0.0528,-0.0514,-0.0533,-0.0538,-0.0556,-0.0566,-0.0569,-0.0587,-0.0617,-0.0615,-0.0649,-0.067,-0.0732,-0.0725,-0.0736,-0.0806,-0.0829,-0.083,-0.0831,-0.0931,-0.0941,-0.0949,0,0,0,0,0,0,-0.0497,-0.0516,-0.0537,-0.0531,-0.0554,-0.0571,-0.058,-0.0604,-0.0629,-0.0649,-0.0676,-0.0685,-0.0737,-0.0743,-0.0735,-0.0825,-0.0785,-0.0787,-0.0857,-0.0866,-0.0874,-0.0851,-0.0748,0,0,0,0,0,-0.0493,-0.0491,-0.0518,-0.0519,-0.0535,-0.057,-0.0582,-0.0601,-0.0628,-0.064,-0.0672,-0.0707,-0.0743,-0.0782,-0.079,-0.0857,-0.0815,-0.0901,-0.0909,-0.0916,-0.09,-0.0926,-0.0936,-0.0833,-0.0833,-0.0833,0,0,-0.0497,-0.0497,-0.0506,-0.0514,-0.054,-0.0554,-0.0577,-0.0606,-0.0628,-0.0651,-0.0694,-0.0726,-0.0755,-0.0811,-0.084,-0.0838,-0.0908,-0.0917,-0.0923,-0.0902,-0.0928,-0.0938,-0.0947,-0.0833,-0.0833,-0.0833,0,0,-0.049,-0.0496,-0.05,-0.0514,-0.0549,-0.0558,-0.0575,-0.0613,-0.064,-0.0687,-0.071,-0.0762,-0.0828,-0.0852,-0.088,-0.0928,-0.0928,-0.0965,-0.1024,-0.1052,-0.1061,-0.1069,-0.0973,-0.0972,-0.0996,-0.0997,-0.0997,0,-0.0483,-0.049,-0.0504,-0.0511,-0.0527,-0.0565,-0.0583,-0.0609,-0.0654,-0.0681,-0.0707,-0.0792,-0.0834,-0.0901,-0.0944,-0.0949,-0.0938,-0.1003,-0.1065,-0.1072,-0.1078,-0.0979,-0.0976,-0.1002,-0.1001,-0.1001,-0.1,0,-0.0503,-0.0497,-0.0502,-0.0517,-0.0533,-0.055,-0.0593,-0.0614,-0.0668,-0.0705,-0.0777,-0.0826,-0.0883,-0.0929,-0.0979,-0.1061,-0.1023,-0.1057,-0.1052,-0.1096,-0.0986,-0.0981,-0.1009,-0.1007,-0.1006,-0.1005,0,0,-0.0489,-0.0508,-0.0508,-0.0507,-0.0539,-0.0545,-0.0583,-0.0619,-0.0649,-0.072,-0.0761,-0.0875,-0.093,-0.096,-0.1027,-0.1089,-0.1135,-0.1137,-0.1137,-0.1054,-0.1136,-0.1013,-0.0994,-0.1232,-0.1233,-0.1234,-0.1021,0,-0.0493,-0.0496,-0.0509,-0.051,-0.0516,-0.0544,-0.0569,-0.0613,-0.0666,-0.0705,-0.0789,-0.0854,-0.0937,-0.1005,-0.1081,-0.1134,-0.1139,-0.1183,-0.1092,-0.1084,-0.0986,-0.0991,-0.1237,-0.1017,-0.1016,-0.1015,-0.1014,0,-0.0507,-0.0494,-0.0512,-0.0494,-0.0505,-0.0517,-0.055,-0.058,-0.0646,-0.0695,-0.0778,-0.0845,-0.095,-0.101,-0.1084,-0.1135,-0.1138,-0.115,-0.1143,-0.0988,-0.0956,-0.0974,-0.1004,-0.1005,-0.1006,-0.1007,-0.1007,0,-0.0493,-0.0481,-0.0488,-0.0492,-0.05,-0.0516,-0.0529,-0.0592,-0.0614,-0.0698,-0.0731,-0.0839,-0.0897,-0.0965,-0.1005,-0.1093,-0.101,-0.1113,-0.0944,-0.093,-0.1058,-0.1053,-0.1098,-0.1098,-0.1099,-0.1099,-0.11,0,-0.0472,-0.0468,-0.0482,-0.0483,-0.0479,-0.0512,-0.0527,-0.0557,-0.0603,-0.0613,-0.0747,-0.0747,-0.0919,-0.0903,-0.0948,-0.0888,-0.0946,-0.0917,-0.0887,-0.1095,-0.1097,-0.105,-0.1047,-0.1091,-0.1093,-0.1095,-0.1096,0,-0.0468,-0.0477,-0.0466,-0.0473,-0.0475,-0.0487,-0.0497,-0.0502,-0.0571,-0.0579,-0.0614,-0.0694,-0.0706,-0.0737,-0.0772,-0.0779,-0.0739,-0.0668,-0.0753,-0.0736,-0.065,-0.0656,-0.0528,-0.0523,-0.0518,-0.0514,-0.051,0,-0.0463,-0.0473,-0.0466,-0.0446,-0.0451,-0.0458,-0.0455,-0.049,-0.049,-0.051,-0.0499,-0.052,-0.0563,-0.045,-0.0525,-0.0482,-0.0503,-0.0435,-0.0697,-0.0618,-0.0602,-0.0614,-0.0626,-0.0503,-0.0502,-0.05,-0.0499,0,-0.0454,-0.0476,-0.0465,-0.0437,-0.0419,-0.0381,-0.038,-0.0365,-0.0391,-0.0441,-0.0391,-0.0391,-0.0345,-0.0381,-0.0297,-0.0293,-0.0498,-0.0388,-0.0404,-0.0649,-0.0585,-0.0577,-0.0594,-0.0482,-0.0485,-0.0486,-0.0487,0,-0.0455,-0.0447,-0.0445,-0.0413,-0.0373,-0.0314,-0.0312,-0.0284,-0.0281,-0.0321,-0.026,-0.0271,-0.0296,-0.0264,-0.0184,-0.0172,-0.0267,-0.0322,-0.0343,-0.0362,-0.0422,-0.0323,-0.0089,0,0,0,0,0,-0.0443,-0.0435,-0.0409,-0.0348,-0.0304,-0.028,-0.0259,-0.0261,-0.0272,-0.0224,-0.0253,-0.0202,-0.0164,-0.0151,-0.0126,-0.0147,-0.0267,-0.0116,-0.0341,-0.039,-0.0409,-0.0504,0,0,0,0,0,0,-0.0432,-0.0421,-0.0407,-0.0309,-0.0251,-0.0192,-0.0172,-0.0175,-0.0159,-0.018,-0.0161,-0.0183,-0.0151,-0.0175,-0.012,-0.0118,-0.0254,-0.0116,-0.0115,-0.0379,-0.0397,-0.0412,-0.0516,0,0,0,0,0]},{"header":{"parameterUnit":"m.s-1","parameterCategory":2,"la1":30.2991,"la2":30.254,"lo1":-89.0895,"lo2":-89.0444,"dy":0.0017,"dx":0.0017,"nx":28,"ny":28,"refTime":"2025-06-19T03:00:00:Z","depth":"4","parameterNumber":3,"parameterNumberName":"V-component_of_CURRENTS"},"data":[0,0,0,0,0,0,0,0,0,0,0,0,0,0,0,0,0,0,0,0,0,0,0,0,0,0,0,0,0,0,0,0,0,0,0,0,0,0,0,0,0,0,0,0,0,0,0,0,0,0,0,0,0,0,0,0,0,0,-0.0318,-0.0318,0,-0.0395,-0.0396,-0.0397,-0.0444,-0.0444,-0.0444,-0.0444,-0.0489,-0.049,-0.0491,0,0,0,0,0,0,0,0,0,0,0,0,0,-0.0246,-0.0247,-0.0318,-0.0318,-0.0319,-0.0394,-0.0396,-0.0397,-0.0444,-0.0444,-0.0444,-0.0444,-0.0489,-0.049,-0.0491,0,0,0,0,0,0,0,0,0,0,0,0,0,-0.0298,-0.0247,-0.0317,-0.0349,-0.0353,-0.0394,-0.0396,-0.0397,-0.0444,-0.0444,-0.0444,-0.0444,-0.0488,-0.049,-0.0492,-0.0503,0,0,-0.0497,-0.0498,0,0,0,0,0,0,0,0,-0.0295,-0.0301,-0.0344,-0.0347,-0.0351,-0.0407,-0.0387,-0.043,-0.0444,-0.0412,-0.0444,-0.0444,-0.0457,-0.0461,-0.048,-0.0505,-0.0507,-0.0497,-0.0498,-0.0499,-0.05,0,0,0,0,0,0,0,-0.0291,-0.0298,-0.0351,-0.0345,-0.0349,-0.0372,-0.0379,-0.0396,-0.0435,-0.0415,-0.0418,-0.0422,-0.0459,-0.0478,-0.0481,-0.0508,-0.0497,-0.0499,-0.05,-0.0501,-0.0597,-0.0598,0,0,0,0,0,0,-0.0274,-0.0295,-0.0348,-0.0353,-0.0319,-0.0373,-0.0381,-0.0392,-0.0436,-0.0442,-0.0422,-0.0424,-0.0475,-0.0479,-0.0483,-0.0543,-0.0499,-0.0501,-0.0502,-0.0596,-0.0597,-0.0599,0,0,0,0,0,0,-0.0273,-0.0279,-0.0345,-0.0323,-0.0332,-0.0373,-0.0385,-0.0393,-0.0436,-0.0441,-0.0447,-0.0459,-0.0475,-0.0481,-0.052,-0.0543,-0.0502,-0.0503,-0.0594,-0.0596,-0.0598,-0.0634,0,0,0,0,0,0,-0.0271,-0.0278,-0.029,-0.0322,-0.0333,-0.0386,-0.0385,-0.0394,-0.0436,-0.044,-0.0474,-0.0477,-0.0476,-0.0518,-0.0522,-0.0545,-0.0505,-0.0592,-0.0595,-0.0597,-0.0631,-0.0638,-0.0643,0,0,0,0,0,-0.0268,-0.0277,-0.029,-0.0297,-0.0345,-0.0386,-0.0396,-0.0426,-0.0438,-0.0464,-0.0487,-0.0478,-0.0538,-0.0521,-0.0525,-0.0549,-0.0591,-0.0594,-0.0597,-0.0629,-0.0636,-0.0643,0,0,0,0,0,0,-0.0259,-0.0283,-0.0298,-0.0317,-0.0357,-0.0394,-0.0413,-0.0442,-0.0484,-0.0491,-0.0498,-0.0503,-0.0548,-0.0547,-0.0527,-0.0586,-0.0562,-0.0567,-0.0585,-0.0592,-0.0598,-0.0588,-0.0506,0,0,0,0,0,-0.026,-0.0276,-0.0308,-0.0332,-0.0344,-0.0387,-0.0411,-0.0441,-0.0474,-0.0495,-0.0518,-0.054,-0.0563,-0.0576,-0.0597,-0.0629,-0.0606,-0.0648,-0.0654,-0.0658,-0.0655,-0.0639,-0.0642,-0.061,-0.061,-0.061,0,0,-0.0268,-0.0281,-0.0294,-0.0332,-0.0359,-0.039,-0.0403,-0.0449,-0.0483,-0.049,-0.0544,-0.0567,-0.0579,-0.0616,-0.0635,-0.0618,-0.0657,-0.0663,-0.0666,-0.0661,-0.0643,-0.0646,-0.0648,-0.0612,-0.0612,-0.0611,0,0,-0.0275,-0.0298,-0.0306,-0.034,-0.0384,-0.0411,-0.0429,-0.0482,-0.0511,-0.0565,-0.0578,-0.0619,-0.0653,-0.0669,-0.0678,-0.073,-0.0692,-0.0737,-0.0753,-0.0738,-0.074,-0.0741,-0.0715,-0.0714,-0.0734,-0.0734,-0.0734,0,-0.0277,-0.03,-0.0321,-0.0342,-0.0372,-0.042,-0.0452,-0.0488,-0.0555,-0.0577,-0.0585,-0.0655,-0.0676,-0.0711,-0.0733,-0.0742,-0.0717,-0.0724,-0.0743,-0.0744,-0.0745,-0.0717,-0.0715,-0.0737,-0.0736,-0.0736,-0.0736,0,-0.0296,-0.032,-0.033,-0.0368,-0.0406,-0.0448,-0.0492,-0.0535,-0.0575,-0.0612,-0.0669,-0.0702,-0.0737,-0.0757,-0.0761,-0.0786,-0.0761,-0.0754,-0.0719,-0.0749,-0.072,-0.0717,-0.074,-0.0739,-0.0738,-0.0738,0,0,-0.0281,-0.0329,-0.0332,-0.0358,-0.0429,-0.046,-0.051,-0.0564,-0.0594,-0.0658,-0.0691,-0.0753,-0.0776,-0.0788,-0.0805,-0.0802,-0.0797,-0.078,-0.0778,-0.0742,-0.0746,-0.0703,-0.0695,-0.0783,-0.0783,-0.0782,-0.0722,0,-0.0289,-0.032,-0.0349,-0.0403,-0.0433,-0.0487,-0.0524,-0.0585,-0.0633,-0.0676,-0.0718,-0.0765,-0.0784,-0.0808,-0.0808,-0.0806,-0.0791,-0.0813,-0.0732,-0.073,-0.0678,-0.0692,-0.0782,-0.072,-0.0719,-0.0719,-0.0718,0,-0.0297,-0.032,-0.0364,-0.0419,-0.0434,-0.048,-0.055,-0.0587,-0.0651,-0.0683,-0.0734,-0.0769,-0.0806,-0.0805,-0.0797,-0.0805,-0.0777,-0.0764,-0.0761,-0.0704,-0.0681,-0.0685,-0.0713,-0.0713,-0.0714,-0.0714,-0.0714,0,-0.028,-0.0329,-0.0363,-0.0392,-0.0462,-0.0495,-0.0533,-0.0603,-0.0625,-0.0696,-0.0724,-0.0767,-0.0788,-0.0772,-0.0765,-0.0776,-0.0723,-0.0734,-0.0663,-0.0659,-0.0698,-0.0697,-0.0703,-0.0703,-0.0703,-0.0703,-0.0703,0,-0.0283,-0.031,-0.0364,-0.039,-0.0439,-0.0491,-0.0541,-0.0582,-0.0627,-0.0647,-0.0729,-0.0735,-0.0777,-0.0763,-0.0747,-0.0691,-0.0706,-0.0662,-0.0642,-0.0716,-0.0718,-0.0695,-0.0695,-0.0701,-0.0701,-0.0702,-0.0702,0,-0.0271,-0.0302,-0.0348,-0.0414,-0.0439,-0.048,-0.0538,-0.0562,-0.0614,-0.0638,-0.066,-0.0704,-0.0686,-0.0705,-0.0668,-0.0661,-0.0619,-0.0586,-0.0653,-0.0638,-0.057,-0.0573,-0.0516,-0.0514,-0.0512,-0.0511,-0.051,0,-0.0266,-0.0283,-0.0356,-0.0386,-0.0426,-0.0483,-0.0514,-0.056,-0.0572,-0.0598,-0.0594,-0.0604,-0.0628,-0.0549,-0.0563,-0.0532,-0.0525,-0.0518,-0.0568,-0.0565,-0.0551,-0.0557,-0.0562,-0.0507,-0.0506,-0.0506,-0.0505,0,-0.0256,-0.0283,-0.0326,-0.0374,-0.0423,-0.0464,-0.0504,-0.0503,-0.0532,-0.0567,-0.0529,-0.0533,-0.0501,-0.0492,-0.0473,-0.0448,-0.0545,-0.0501,-0.0505,-0.0551,-0.0553,-0.0543,-0.055,-0.05,-0.05,-0.0501,-0.0501,0,-0.025,-0.028,-0.0321,-0.0365,-0.0413,-0.0442,-0.047,-0.047,-0.0477,-0.0495,-0.0453,-0.0463,-0.0462,-0.0441,-0.0408,-0.0403,-0.0411,-0.0433,-0.0442,-0.0448,-0.0459,-0.0454,-0.0345,0,0,0,0,0,-0.0248,-0.0268,-0.0298,-0.0357,-0.0393,-0.0418,-0.0453,-0.0471,-0.0483,-0.0442,-0.0449,-0.0413,-0.039,-0.038,-0.0362,-0.0389,-0.0423,-0.0369,-0.0456,-0.0467,-0.0474,-0.0496,0,0,0,0,0,0,-0.0254,-0.0281,-0.0293,-0.0326,-0.0352,-0.0395,-0.0421,-0.0435,-0.0409,-0.0413,-0.039,-0.0398,-0.0368,-0.0383,-0.0351,-0.0352,-0.0405,-0.0362,-0.0362,-0.0463,-0.0469,-0.0475,-0.05,0,0,0,0,0]}]]